Pineville, LA

3:07 AM CST on February 21, 2017 (GMT -0600)
Alexandria Esler Regional

Weather History for KESF - April, 2014

Change the Weather History Date:

Thursday, April 17, 2014

  Actual Average Record
Temperature  
Mean Temperature 54 °F -  
Max Temperature 68 °F 78 °F 91 °F (2006)
Min Temperature 41 °F 57 °F 36 °F (1999)
Degree Days  
Heating Degree Days 10    
Growing Degree Days 4 (Base 50)    
Moisture  
Dew Point 49 °F    
Average Humidity 78    
Maximum Humidity 93    
Minimum Humidity 54    
Precipitation  
Precipitation 0.01 in - - ()
Sea Level Pressure  
Sea Level Pressure 30.16 in    
Wind  
Wind Speed 2 mph (East)    
Max Wind Speed 12 mph    
Max Gust Speed -    
Visibility 8 miles    
Events Rain , Thunderstorm    
Averages and records for this station are not official NWS values.
T = Trace of Precipitation, MM = Missing Value Source: NWS Daily Summary

Daily Weather History Graph

Daily Weather History Graph

Search for Another Location

Airport or City:

Trip Planner

Search our weather history database for the weather conditions in past years. The results will help you decide how hot, cold, wet, or windy it might be!

Date:

Astronomy

Apr. 17, 2014 Rise Set
Actual Time 6:38 AM CDT 7:39 PM CDT
Civil Twilight 6:13 AM CDT 8:04 PM CDT
Nautical Twilight 5:44 AM CDT 8:33 PM CDT
Astronomical Twilight 5:13 AM CDT 9:04 PM CDT
Moon 10:17 PM CDT (4/17) 8:17 AM CDT (4/17)
Length of Visible Light 13h 50m
Length of Day
13h 00m
Waning Gibbous, 93% of the Moon is Illuminated
Apr 17
Waning Gibbous
Apr 22
Last Quarter
Apr 29
New
May 6
First Quarter
May 14
Full

Hourly Weather History & Observations

Time (CDT) Temp. Windchill Dew Point Humidity Pressure Visibility Wind Dir Wind Speed Gust Speed Precip Events Conditions
1:53 AM 43.0 °F - 39.9 °F 89% 30.14 in 10.0 mi Calm Calm - N/A   Clear
2:53 AM 43.0 °F - 39.9 °F 89% 30.15 in 8.0 mi Calm Calm - N/A   Clear
3:53 AM 42.1 °F - 39.9 °F 92% 30.14 in 7.0 mi Calm Calm - N/A   Clear
4:53 AM 41.0 °F - 37.9 °F 89% 30.15 in 7.0 mi Calm Calm - N/A   Clear
5:53 AM 41.0 °F 38.0 °F 39.0 °F 93% 30.15 in 10.0 mi East 4.6 mph - N/A   Scattered Clouds
6:53 AM 42.1 °F - 39.9 °F 92% 30.17 in 5.0 mi Calm Calm - N/A   Clear
7:53 AM 48.0 °F - 45.0 °F 89% 30.19 in 10.0 mi Calm Calm - N/A   Mostly Cloudy
8:53 AM 57.0 °F - 48.9 °F 74% 30.19 in 10.0 mi East 4.6 mph - N/A   Partly Cloudy
9:53 AM 62.1 °F - 48.0 °F 60% 30.19 in 10.0 mi ESE 5.8 mph - N/A   Clear
10:53 AM 64.9 °F - 48.0 °F 54% 30.20 in 10.0 mi East 8.1 mph - N/A   Scattered Clouds
11:53 AM 64.4 °F - 48.2 °F 56% 30.21 in 10.0 mi SE 11.5 mph - N/A   Overcast
12:53 PM 66.0 °F - 48.9 °F 54% 30.19 in 10.0 mi ESE 6.9 mph - N/A   Scattered Clouds
1:45 PM 64.0 °F - 48.9 °F 58% 30.18 in 10.0 mi East 4.6 mph - N/A Thunderstorm Thunderstorm
1:53 PM 64.0 °F - 50.0 °F 60% 30.18 in 10.0 mi Calm Calm - 0.00 in Rain , Thunderstorm Light Thunderstorms and Rain
2:04 PM 62.1 °F - 52.0 °F 70% 30.18 in 10.0 mi NE 3.5 mph - 0.00 in Rain Light Rain
2:53 PM 62.1 °F - 55.0 °F 78% 30.14 in 10.0 mi Calm Calm - 0.01 in   Mostly Cloudy
3:53 PM 64.9 °F - 52.0 °F 63% 30.12 in 10.0 mi East 4.6 mph - N/A   Mostly Cloudy
4:53 PM 68.0 °F - 51.1 °F 55% 30.13 in 10.0 mi East 3.5 mph - N/A   Clear
5:53 PM 66.9 °F - 52.0 °F 59% 30.14 in 10.0 mi Calm Calm - N/A   Clear
6:53 PM 64.9 °F - 55.9 °F 73% 30.15 in 10.0 mi Calm Calm - N/A   Mostly Cloudy
7:53 PM 62.1 °F - 55.9 °F 80% 30.14 in 10.0 mi NNE 4.6 mph - N/A   Mostly Cloudy
8:53 PM 59.0 °F - 55.9 °F 90% 30.15 in 10.0 mi Calm Calm - N/A   Clear
9:53 PM 57.0 °F - 54.0 °F 89% 30.16 in 2.5 mi Calm Calm - N/A   Clear
10:03 PM 57.0 °F - 54.0 °F 89% 30.17 in 9.0 mi Calm Calm - N/A   Scattered Clouds
10:14 PM 57.0 °F - 54.0 °F 89% 30.16 in 9.0 mi Calm Calm - N/A   Mostly Cloudy
10:53 PM 55.9 °F - 53.1 °F 90% 30.15 in 7.0 mi Calm Calm - N/A   Overcast
11:22 PM 55.9 °F - 53.1 °F 90% 30.16 in 6.0 mi Calm Calm - N/A   Scattered Clouds
11:53 PM 55.0 °F - 53.1 °F 93% 30.17 in 2.5 mi Calm Calm - N/A   Scattered Clouds
11:56 PM 55.0 °F - 53.1 °F 93% 30.17 in 0.8 mi Calm Calm - N/A   Scattered Clouds